| time (UTC) | temp F | wind direction | speed MPH | gust MPH | rain 1hr in | rain 24hr in | rain mn in | humidity % | barometer mb |
| 20260505111540 | 57 | 201 | 5.0 | 14.0 | 0.00 | 0.00 | 0.00 | 82 | 1011.6 |
| 20260505111033 | -56 | 207 | 5.0 | 11.0 | 0.00 | 0.00 | 0.00 | 1011.7 | |
| 20260505110530 | -56 | 201 | 3.0 | 10.0 | 0.00 | 0.00 | 0.00 | 1011.7 | |
| 20260505102029 | 55 | 199 | 3.0 | 10.0 | 0.00 | 0.00 | 0.00 | 83 | 1011.4 |
| 20260505101538 | 55 | 207 | 3.0 | 9.0 | 0.00 | 0.00 | 0.00 | 83 | 1011.3 |
| 20260505101034 | 55 | 174 | 3.0 | 10.0 | 0.00 | 0.00 | 0.00 | 83 | 1011.3 |
| 20260505100531 | 55 | 173 | 5.0 | 11.0 | 0.00 | 0.00 | 0.00 | 83 | 1011.2 |
| 20260505100041 | 55 | 167 | 4.0 | 11.0 | 0.00 | 0.00 | 0.00 | 83 | 1011.2 |
| 20260505095531 | 55 | 171 | 4.0 | 11.0 | 0.00 | 0.00 | 0.00 | 83 | 1011.2 |
| 20260505095030 | 55 | 154 | 3.0 | 10.0 | 0.00 | 0.00 | 0.00 | 82 | 1011.1 |
| 20260505094550 | 55 | 194 | 4.0 | 10.0 | 0.00 | 0.00 | 0.00 | 82 | 1011.1 |
| 20260505094030 | 55 | 217 | 2.0 | 6.0 | 0.00 | 0.00 | 0.00 | 82 | 1011.1 |
| 20260505093529 | 55 | 217 | 2.0 | 10.0 | 0.00 | 0.00 | 0.00 | 82 | 1011.3 |
| 20260505093047 | 55 | 218 | 3.0 | 11.0 | 0.00 | 0.00 | 0.00 | 82 | 1011.2 |
| 20260505092531 | 55 | 209 | 4.0 | 11.0 | 0.00 | 0.00 | 0.00 | 82 | 1011.2 |
| 20260505092031 | 55 | 201 | 5.0 | 11.0 | 0.00 | 0.00 | 0.00 | 1011.1 | |
| 20260505091556 | -61 | 201 | 4.0 | 13.0 | 0.00 | 0.00 | 0.00 | 1011.2 | |
| 20260505091034 | -61 | 211 | 4.0 | 13.0 | 0.00 | 0.00 | 0.00 | 100 | 1011.0 |
| 20260505090534 | -61 | 178 | 4.0 | 11.0 | 0.00 | 0.00 | 0.00 | 1011.0 | |
| 20260505090050 | -61 | 213 | 3.0 | 9.0 | 0.00 | 0.00 | 0.00 | 1011.0 | |
| 20260505085531 | -61 | 226 | 2.0 | 8.0 | 0.00 | 0.00 | 0.00 | 1011.1 | |
| 20260505085031 | -61 | 227 | 3.0 | 17.0 | 0.00 | 0.00 | 0.00 | 1011.2 | |
| 20260505084558 | -61 | 194 | 5.0 | 18.0 | 0.00 | 0.00 | 0.00 | 1011.0 | |
| 20260505084030 | 55 | 178 | 6.0 | 19.0 | 0.00 | 0.00 | 0.00 | 1010.9 | |
| 20260505083530 | -61 | 175 | 6.0 | 19.0 | 0.00 | 0.00 | 0.00 | 1010.8 | |
| 20260505083058 | -61 | 171 | 7.0 | 18.0 | 0.00 | 0.00 | 0.00 | 1010.6 | |
| 20260505082531 | -61 | 159 | 6.0 | 15.0 | 0.00 | 0.00 | 0.00 | 1010.8 | |
| 20260505082031 | -61 | 175 | 6.0 | 15.0 | 0.00 | 0.00 | 0.00 | 1010.9 | |
| 20260505081558 | -61 | 189 | 6.0 | 15.0 | 0.00 | 0.00 | 0.00 | 1010.7 | |
| 20260505081035 | -61 | 173 | 7.0 | 13.0 | 0.00 | 0.00 | 0.00 | 1010.8 | |
| 20260505080533 | -61 | 216 | 5.0 | 16.0 | 0.00 | 0.00 | 0.00 | 1010.8 | |
| 20260505080059 | -61 | 188 | 6.0 | 17.0 | 0.00 | 0.00 | 0.00 | 1011.0 | |
| 20260505075533 | -61 | 145 | 7.0 | 17.0 | 0.00 | 0.00 | 0.00 | 1010.9 | |
| 20260505075033 | -61 | 173 | 6.0 | 17.0 | 0.00 | 0.00 | 0.00 | 1010.9 | |
| 20260505074543 | -61 | 179 | 5.0 | 17.0 | 0.00 | 0.00 | 0.00 | 1010.9 | |
| 20260505074031 | -61 | 182 | 6.0 | 18.0 | 0.00 | 0.00 | 0.00 | 1010.9 | |
| 20260505073535 | -61 | 182 | 6.0 | 18.0 | 0.00 | 0.00 | 0.00 | 1010.8 | |
| 20260505073052 | -61 | 180 | 5.0 | 17.0 | 0.00 | 0.00 | 0.00 | 1011.0 | |
| 20260505072531 | -61 | 177 | 5.0 | 17.0 | 0.00 | 0.00 | 0.00 | 1010.9 | |
| 20260505072031 | -61 | 202 | 5.0 | 16.0 | 0.00 | 0.00 | 0.00 | 1010.9 | |
| 20260505071546 | -61 | 194 | 5.0 | 16.0 | 0.00 | 0.00 | 0.00 | 1011.0 | |
| 20260505071031 | -61 | 194 | 5.0 | 15.0 | 0.00 | 0.00 | 0.00 | 1011.0 | |
| 20260505070535 | -61 | 185 | 5.0 | 14.0 | 0.00 | 0.00 | 0.00 | 1011.0 | |
| 20260505070049 | -61 | 187 | 5.0 | 15.0 | 0.00 | 0.00 | 0.00 | 1011.0 | |
| 20260505065531 | -61 | 178 | 6.0 | 15.0 | 0.00 | 0.00 | 0.00 | 1011.1 | |
| 20260505065031 | -61 | 180 | 5.0 | 13.0 | 0.00 | 0.00 | 0.00 | 1011.2 | |
| 20260505064543 | -61 | 195 | 5.0 | 15.0 | 0.00 | 0.00 | 0.00 | 1011.2 | |
| 20260505064034 | -61 | 185 | 6.0 | 15.0 | 0.00 | 0.00 | 0.00 | 1011.1 | |
| 20260505063531 | -61 | 219 | 6.0 | 15.0 | 0.00 | 0.00 | 0.00 | 1011.2 | |
| 20260505063041 | -61 | 186 | 4.0 | 14.0 | 0.00 | 0.00 | 0.00 | 1011.3 | |
| 20260505062534 | -61 | 194 | 4.0 | 13.0 | 0.00 | 0.00 | 0.00 | 1011.2 | |
| 20260505062030 | -61 | 140 | 5.0 | 18.0 | 0.00 | 0.00 | 0.00 | 1011.1 | |
| 20260505061539 | -61 | 203 | 6.0 | 18.0 | 0.00 | 0.00 | 0.00 | 1011.2 | |
| 20260505061035 | -61 | 193 | 6.0 | 15.0 | 0.00 | 0.00 | 0.00 | 1011.4 | |
| 20260505060534 | -61 | 208 | 5.0 | 16.0 | 0.00 | 0.00 | 0.00 | 1011.4 | |
| 20260505060056 | -61 | 215 | 7.0 | 16.0 | 0.00 | 0.00 | 0.00 | 1011.5 | |
| 20260505055532 | -61 | 190 | 7.0 | 16.0 | 0.00 | 0.00 | 0.00 | 1011.5 | |
| 20260505055031 | -61 | 188 | 7.0 | 16.0 | 0.00 | 0.00 | 0.00 | 1011.5 | |
| 20260505054541 | -61 | 195 | 5.0 | 15.0 | 0.00 | 0.00 | 0.00 | 1011.5 | |
| 20260505054035 | -61 | 223 | 6.0 | 15.0 | 0.00 | 0.00 | 0.00 | 1011.6 | |
| 20260505053531 | -61 | 215 | 4.0 | 14.0 | 0.00 | 0.00 | 0.00 | 1011.5 | |
| 20260505053040 | -61 | 185 | 5.0 | 14.0 | 0.00 | 0.00 | 0.00 | 1011.6 | |
| 20260505052530 | -61 | 188 | 6.0 | 15.0 | 0.00 | 0.00 | 0.00 | 1011.6 | |
| 20260505052032 | -61 | 181 | 5.0 | 15.0 | 0.00 | 0.00 | 0.00 | 1011.7 | |
| 20260505051537 | -61 | 180 | 6.0 | 15.0 | 0.00 | 0.00 | 0.00 | 1011.7 | |
| 20260505051031 | -61 | 168 | 4.0 | 15.0 | 0.00 | 0.00 | 0.00 | 1011.7 | |
| 20260505050530 | -61 | 184 | 5.0 | 18.0 | 0.00 | 0.00 | 0.00 | 1011.9 | |
| 20260505041553 | -61 | 194 | 4.0 | 12.0 | 0.00 | 0.00 | 0.00 | 1012.1 | |
| 20260505041030 | -61 | 196 | 5.0 | 12.0 | 0.00 | 0.00 | 0.00 | 1012.1 | |
| 20260505040531 | -61 | 204 | 4.0 | 17.0 | 0.00 | 0.00 | 0.00 | 100 | 1012.1 |
| 20260505040036 | -61 | 205 | 5.0 | 17.0 | 0.00 | 0.00 | 0.00 | 1012.1 | |
| 20260505035534 | -61 | 210 | 4.0 | 12.0 | 0.00 | 0.00 | 0.00 | 1012.0 | |
| 20260505035032 | -61 | 190 | 5.0 | 14.0 | 0.00 | 0.00 | 0.00 | 1011.9 | |
| 20260505034543 | -61 | 194 | 4.0 | 14.0 | 0.00 | 0.00 | 0.00 | 1012.1 | |
| 20260505034031 | -61 | 191 | 5.0 | 14.0 | 0.00 | 0.00 | 0.00 | 1011.9 | |
| 20260505033531 | -61 | 198 | 5.0 | 12.0 | 0.00 | 0.00 | 0.00 | 100 | 1011.9 |
| 20260505033042 | -61 | 196 | 4.0 | 15.0 | 0.00 | 0.00 | 0.00 | 1011.8 | |
| 20260505032529 | -61 | 196 | 4.0 | 16.0 | 0.00 | 0.00 | 0.00 | 1011.9 | |
| 20260505032032 | -61 | 201 | 5.0 | 16.0 | 0.00 | 0.00 | 0.00 | 1011.9 | |
| 20260505031539 | -61 | 200 | 4.0 | 16.0 | 0.00 | 0.00 | 0.00 | 1012.0 | |
| 20260505031031 | -61 | 189 | 6.0 | 16.0 | 0.00 | 0.00 | 0.00 | 100 | 1012.0 |
| 20260505030535 | 158 | 195 | 4.0 | 17.0 | 0.00 | 0.00 | 0.00 | 100 | 1012.0 |
| 20260505030108 | -61 | 202 | 5.0 | 17.0 | 0.00 | 0.00 | 0.00 | 1012.1 | |
| 20260505025531 | -61 | 194 | 4.0 | 13.0 | 0.00 | 0.00 | 0.00 | 1012.0 | |
| 20260505025030 | -61 | 207 | 5.0 | 12.0 | 0.00 | 0.00 | 0.00 | 77 | 1012.0 |
| 20260505024548 | -61 | 189 | 6.0 | 15.0 | 0.00 | 0.00 | 0.00 | 1012.1 | |
| 20260505024034 | -61 | 182 | 5.0 | 16.0 | 0.00 | 0.00 | 0.00 | 1012.0 | |
| 20260505023534 | -61 | 193 | 5.0 | 16.0 | 0.00 | 0.00 | 0.00 | 1012.0 | |
| 20260505023044 | -61 | 202 | 5.0 | 14.0 | 0.00 | 0.00 | 0.00 | 100 | 1012.0 |
| 20260505022534 | -61 | 203 | 6.0 | 16.0 | 0.00 | 0.00 | 0.00 | 1012.1 | |
| 20260505022033 | -61 | 199 | 5.0 | 16.0 | 0.00 | 0.00 | 0.00 | 1012.0 | |
| 20260505021551 | -61 | 188 | 6.0 | 16.0 | 0.00 | 0.00 | 0.00 | 1012.0 | |
| 20260505021033 | -61 | 225 | 4.0 | 15.0 | 0.00 | 0.00 | 0.00 | 1012.0 | |
| 20260505020534 | -61 | 154 | 5.0 | 15.0 | 0.00 | 0.00 | 0.00 | 1012.0 | |
| 20260505020041 | -61 | 188 | 5.0 | 14.0 | 0.00 | 0.00 | 0.00 | 1011.9 | |
| 20260505015534 | -61 | 192 | 6.0 | 15.0 | 0.00 | 0.00 | 0.00 | 1012.1 | |
| 20260505015031 | -61 | 162 | 6.0 | 23.0 | 0.00 | 0.00 | 0.00 | 1011.9 | |
| 20260505014603 | -61 | 182 | 7.0 | 23.0 | 0.00 | 0.00 | 0.00 | 1011.8 | |
| 20260505014030 | -61 | 128 | 6.0 | 16.0 | 0.00 | 0.00 | 0.00 | 1011.8 | |
| 20260505013532 | -61 | 177 | 5.0 | 16.0 | 0.00 | 0.00 | 0.00 | 1011.7 | |
| 20260505013051 | -61 | 189 | 6.0 | 16.0 | 0.00 | 0.00 | 0.00 | 1011.7 | |
| 20260505012530 | -61 | 192 | 6.0 | 18.0 | 0.00 | 0.00 | 0.00 | 1011.7 | |
| 20260505012033 | -61 | 192 | 5.0 | 19.0 | 0.00 | 0.00 | 0.00 | 1011.7 | |
| 20260505011545 | 158 | 198 | 7.0 | 19.0 | 0.00 | 0.00 | 0.00 | 1011.7 | |
| 20260505011035 | -61 | 217 | 5.0 | 21.0 | 0.00 | 0.00 | 0.00 | 1011.7 | |
| 20260505010535 | -61 | 204 | 6.0 | 21.0 | 0.00 | 0.00 | 0.00 | 1011.6 | |
| 20260505010054 | -63 | 213 | 5.0 | 18.0 | 0.00 | 0.00 | 0.00 | 1011.5 | |
| 20260505005534 | -63 | 191 | 7.0 | 24.0 | 0.00 | 0.00 | 0.00 | 1011.5 | |
| 20260505005035 | -63 | 210 | 7.0 | 24.0 | 0.00 | 0.00 | 0.00 | 1011.5 | |
| 20260505004551 | -63 | 214 | 7.0 | 16.0 | 0.00 | 0.00 | 0.00 | 1011.3 | |
| 20260505004033 | -63 | 184 | 6.0 | 16.0 | 0.00 | 0.00 | 0.00 | 1011.3 | |
| 20260505003534 | -63 | 194 | 7.0 | 15.0 | 0.00 | 0.00 | 0.00 | 1011.2 | |
| 20260505003055 | -63 | 180 | 5.0 | 20.0 | 0.00 | 0.00 | 0.00 | 1011.3 | |
| 20260505002534 | -63 | 187 | 7.0 | 20.0 | 0.00 | 0.00 | 0.00 | 1011.1 | |
| 20260505002034 | -63 | 204 | 7.0 | 16.0 | 0.00 | 0.00 | 0.00 | 1011.0 | |
| 20260505001546 | -63 | 188 | 7.0 | 16.0 | 0.00 | 0.00 | 0.00 | 77 | 1011.0 |
| 20260505001034 | -63 | 196 | 5.0 | 18.0 | 0.00 | 0.00 | 0.00 | 100 | 1010.9 |
| 20260505000534 | 54 | 165 | 6.0 | 18.0 | 0.00 | 0.00 | 0.00 | 77 | 1010.9 |
| 20260505000037 | 54 | 181 | 7.0 | 18.0 | 0.00 | 0.00 | 0.00 | 76 | 1010.8 |
| 20260504235534 | 54 | 132 | 6.0 | 23.0 | 0.00 | 0.00 | 0.00 | 76 | 1010.8 |
| 20260504235034 | 54 | 121 | 6.0 | 23.0 | 0.00 | 0.00 | 0.00 | 76 | 1010.7 |
| 20260504234545 | 54 | 173 | 6.0 | 17.0 | 0.00 | 0.00 | 0.00 | 76 | 1010.6 |
| 20260504234034 | -61 | 133 | 6.0 | 17.0 | 0.00 | 0.00 | 0.00 | 76 | 1010.7 |
| 20260504233534 | 55 | 192 | 6.0 | 17.0 | 0.00 | 0.00 | 0.00 | 77 | 1010.6 |
| 20260504233040 | 55 | 191 | 7.0 | 17.0 | 0.00 | 0.00 | 0.00 | 77 | 1010.6 |
| 20260504232534 | 55 | 180 | 5.0 | 20.0 | 0.00 | 0.00 | 0.00 | 77 | 1010.6 |
| 20260504232033 | 55 | 184 | 6.0 | 20.0 | 0.00 | 0.00 | 0.00 | 78 | 1010.6 |
| 20260504231539 | 56 | 227 | 7.0 | 19.0 | 0.00 | 0.00 | 0.00 | 78 | 1010.5 |
| 20260504231033 | 56 | 187 | 8.0 | 19.0 | 0.00 | 0.00 | 0.00 | 77 | 1010.5 |
| 20260504230533 | 56 | 197 | 8.0 | 25.0 | 0.00 | 0.00 | 0.00 | 77 | 1010.4 |
| 20260504230039 | 56 | 211 | 9.0 | 25.0 | 0.00 | 0.00 | 0.00 | 77 | 1010.5 |
| 20260504225535 | -56 | 177 | 7.0 | 21.0 | 0.00 | 0.00 | 0.00 | 76 | 1010.4 |
| 20260504225034 | 57 | 180 | 7.0 | 21.0 | 0.00 | 0.00 | 0.00 | 75 | 1010.6 |
| 20260504224545 | 57 | 175 | 8.0 | 17.0 | 0.00 | 0.00 | 0.00 | 75 | 1010.6 |
| 20260504224034 | -54 | 157 | 7.0 | 20.0 | 0.00 | 0.00 | 0.00 | 100 | 1010.7 |
| 20260504223534 | -54 | 244 | 8.0 | 21.0 | 0.00 | 0.00 | 0.00 | 1010.6 | |
| 20260504223058 | -54 | 188 | 7.0 | 22.0 | 0.00 | 0.00 | 0.00 | 1010.6 | |
| 20260504222535 | -54 | 188 | 7.0 | 24.0 | 0.00 | 0.00 | 0.00 | 1010.7 | |
| 20260504222034 | -54 | 189 | 6.0 | 24.0 | 0.00 | 0.00 | 0.00 | 100 | 1010.6 |
| 20260504221542 | -54 | 188 | 5.0 | 25.0 | 0.00 | 0.00 | 0.00 | 1010.6 | |
| 20260504221034 | 158 | 189 | 9.0 | 25.0 | 0.00 | 0.00 | 0.00 | 1010.6 | |
| 20260504220534 | -52 | 174 | 7.0 | 21.0 | 0.00 | 0.00 | 0.00 | 1010.7 | |
| 20260504220042 | -52 | 152 | 6.0 | 25.0 | 0.00 | 0.00 | 0.00 | 1010.7 | |
| 20260504215531 | -52 | 161 | 8.0 | 25.0 | 0.00 | 0.00 | 0.00 | 1010.7 | |
| 20260504215034 | -50 | 212 | 7.0 | 19.0 | 0.00 | 0.00 | 0.00 | 1010.7 | |
| 20260504214539 | -50 | 207 | 7.0 | 22.0 | 0.00 | 0.00 | 0.00 | 1010.7 | |
| 20260504214033 | -50 | 194 | 7.0 | 25.0 | 0.00 | 0.00 | 0.00 | 1010.7 | |
| 20260504213530 | -50 | 181 | 8.0 | 25.0 | 0.00 | 0.00 | 0.00 | 100 | 1010.7 |
| 20260504213046 | -50 | 218 | 8.0 | 20.0 | 0.00 | 0.00 | 0.00 | 1010.8 | |
| 20260504212531 | -50 | 171 | 8.0 | 23.0 | 0.00 | 0.00 | 0.00 | 1010.8 | |
| 20260504212031 | -50 | 205 | 9.0 | 23.0 | 0.00 | 0.00 | 0.00 | 1010.7 | |
| 20260504211624 | -50 | 207 | 8.0 | 18.0 | 0.00 | 0.00 | 0.00 | 1010.8 | |
| 20260504211031 | -50 | 148 | 5.0 | 17.0 | 0.00 | 0.00 | 0.00 | 1010.7 | |
| 20260504210534 | -50 | 199 | 7.0 | 20.0 | 0.00 | 0.00 | 0.00 | 1010.8 | |
| 20260504210045 | -50 | 139 | 8.0 | 20.0 | 0.00 | 0.00 | 0.00 | 1010.8 | |
| 20260504205534 | -49 | 211 | 7.0 | 18.0 | 0.00 | 0.00 | 0.00 | 1010.7 | |
| 20260504205032 | -49 | 198 | 7.0 | 18.0 | 0.00 | 0.00 | 0.00 | 1010.7 | |
| 20260504204542 | -49 | 158 | 7.0 | 19.0 | 0.00 | 0.00 | 0.00 | 1010.8 | |
| 20260504204031 | -49 | 209 | 6.0 | 19.0 | 0.00 | 0.00 | 0.00 | 1010.7 | |
| 20260504203531 | -49 | 187 | 6.0 | 20.0 | 0.00 | 0.00 | 0.00 | 1010.6 | |
| 20260504203042 | -49 | 182 | 6.0 | 20.0 | 0.00 | 0.00 | 0.00 | 1010.6 | |
| 20260504202534 | -49 | 179 | 8.0 | 27.0 | 0.00 | 0.00 | 0.00 | 1010.5 | |
| 20260504202033 | -49 | 184 | 8.0 | 27.0 | 0.00 | 0.00 | 0.00 | 1010.6 | |
| 20260504201552 | -49 | 207 | 10.0 | 20.0 | 0.00 | 0.00 | 0.00 | 1010.7 | |
| 20260504201030 | -48 | 180 | 7.0 | 19.0 | 0.00 | 0.00 | 0.00 | 56 | 1010.7 |
| 20260504200530 | 64 | 193 | 7.0 | 19.0 | 0.00 | 0.00 | 0.00 | 56 | 1010.6 |
| 20260504200043 | 65 | 175 | 6.0 | 19.0 | 0.00 | 0.00 | 0.00 | 54 | 1010.8 |
| 20260504195533 | 65 | 200 | 7.0 | 18.0 | 0.00 | 0.00 | 0.00 | 53 | 1010.7 |
| 20260504195030 | 65 | 223 | 7.0 | 19.0 | 0.00 | 0.00 | 0.00 | 53 | 1010.7 |
| 20260504194549 | 65 | 184 | 8.0 | 25.0 | 0.00 | 0.00 | 0.00 | 53 | 1010.8 |
| 20260504194034 | 65 | 200 | 7.0 | 25.0 | 0.00 | 0.00 | 0.00 | 53 | 1010.9 |
| 20260504193534 | 65 | 221 | 7.0 | 21.0 | 0.00 | 0.00 | 0.00 | 54 | 1010.9 |
| 20260504193051 | -48 | 246 | 10.0 | 21.0 | 0.00 | 0.00 | 0.00 | 1010.9 | |
| 20260504192533 | 65 | 228 | 10.0 | 21.0 | 0.00 | 0.00 | 0.00 | 53 | 1010.8 |
| 20260504192033 | -47 | 196 | 9.0 | 22.0 | 0.00 | 0.00 | 0.00 | 1010.9 | |
| 20260504191542 | 65 | 189 | 9.0 | 22.0 | 0.00 | 0.00 | 0.00 | 1010.8 | |
| 20260504191034 | 66 | 217 | 10.0 | 22.0 | 0.00 | 0.00 | 0.00 | 53 | 1010.9 |
| 20260504190531 | 66 | 198 | 7.0 | 21.0 | 0.00 | 0.00 | 0.00 | 52 | 1010.8 |
| 20260504190054 | 66 | 186 | 6.0 | 17.0 | 0.00 | 0.00 | 0.00 | 52 | 1011.0 |
| 20260504185532 | 158 | 183 | 4.0 | 21.0 | 0.00 | 0.00 | 0.00 | 52 | 1011.1 |
| 20260504185030 | 66 | 193 | 7.0 | 22.0 | 0.00 | 0.00 | 0.00 | 51 | 1011.1 |
| 20260504184547 | 66 | 202 | 8.0 | 26.0 | 0.00 | 0.00 | 0.00 | 52 | 1011.1 |
| 20260504184036 | 66 | 189 | 7.0 | 26.0 | 0.00 | 0.00 | 0.00 | 52 | 1011.1 |
| 20260504183534 | 66 | 196 | 5.0 | 17.0 | 0.00 | 0.00 | 0.00 | 51 | 1011.3 |
| 20260504183045 | 66 | 180 | 6.0 | 14.0 | 0.00 | 0.00 | 0.00 | 51 | 1011.3 |
| 20260504182530 | 66 | 198 | 6.0 | 14.0 | 0.00 | 0.00 | 0.00 | 51 | 1011.2 |
| 20260504182031 | 66 | 200 | 7.0 | 25.0 | 0.00 | 0.00 | 0.00 | 50 | 1011.3 |
| 20260504181539 | 65 | 210 | 7.0 | 25.0 | 0.00 | 0.00 | 0.00 | 51 | 1011.3 |
| 20260504181034 | 65 | 200 | 8.0 | 25.0 | 0.00 | 0.00 | 0.00 | 50 | 1011.2 |
| 20260504180534 | 65 | 191 | 10.0 | 23.0 | 0.00 | 0.00 | 0.00 | 51 | 1011.3 |
| 20260504180039 | 65 | 158 | 6.0 | 26.0 | 0.00 | 0.00 | 0.00 | 51 | 1011.3 |
| 20260504175533 | 65 | 202 | 9.0 | 26.0 | 0.00 | 0.00 | 0.00 | 51 | 1011.3 |
| 20260504175033 | 65 | 214 | 8.0 | 30.0 | 0.00 | 0.00 | 0.00 | 51 | 1011.3 |
| 20260504174549 | 65 | 192 | 8.0 | 31.0 | 0.00 | 0.00 | 0.00 | 50 | 1011.4 |
| 20260504174034 | 65 | 186 | 10.0 | 31.0 | 0.00 | 0.00 | 0.00 | 49 | 1011.5 |
| 20260504173533 | 66 | 150 | 9.0 | 19.0 | 0.00 | 0.00 | 0.00 | 49 | 1011.4 |
| 20260504173054 | 66 | 237 | 7.0 | 19.0 | 0.00 | 0.00 | 0.00 | 49 | 1011.4 |
| 20260504172533 | 66 | 191 | 5.0 | 19.0 | 0.00 | 0.00 | 0.00 | 51 | 1011.4 |
| 20260504172035 | 66 | 199 | 6.0 | 19.0 | 0.00 | 0.00 | 0.00 | 48 | 1011.4 |
| 20260504171547 | 66 | 177 | 7.0 | 18.0 | 0.00 | 0.00 | 0.00 | 49 | 1011.4 |
| 20260504171031 | 66 | 209 | 6.0 | 19.0 | 0.00 | 0.00 | 0.00 | 48 | 1011.6 |
| 20260504170531 | 65 | 191 | 8.0 | 19.0 | 0.00 | 0.00 | 0.00 | 49 | 1011.5 |
| 20260504151035 | 57 | 267 | 10.0 | 17.0 | 0.00 | 0.00 | 0.00 | 66 | 1013.1 |
| 20260504150533 | 59 | 290 | 11.0 | 22.0 | 0.00 | 0.00 | 0.00 | 62 | 1013.0 |
| 20260504141033 | -50 | 217 | 10.0 | 18.0 | 0.00 | 0.00 | 0.00 | 1013.3 | |
| 20260504140533 | -50 | 263 | 8.0 | 18.0 | 0.00 | 0.00 | 0.00 | 1013.3 | |
| 20260504130534 | -50 | 264 | 7.0 | 15.0 | 0.00 | 0.00 | 0.00 | 1013.5 |